Time,TemperatureF,DewpointF,PressureIn,WindDirection,WindDirectionDegrees,WindSpeedMPH,WindSpeedGustMPH,Humidity,HourlyPrecipIn,Conditions,Clouds,dailyrainin,SoftwareType,DateUTC
2013-01-07 00:02:00,22.0,14.0,-100.00,SE,145,8.0,11.0,71,0.00,,,-99.99,,2013-01-07 06:02:00,
2013-01-07 00:12:00,22.0,14.0,-100.00,SE,145,8.0,11.0,71,0.00,,,-99.99,,2013-01-07 06:12:00,
2013-01-07 00:22:00,22.0,15.0,-100.00,SSE,160,7.0,10.0,72,0.00,,,-99.99,,2013-01-07 06:22:00,
2013-01-07 00:32:00,23.0,15.0,-100.00,SSE,165,9.0,13.0,72,0.00,,,-99.99,,2013-01-07 06:32:00,
2013-01-07 00:42:00,23.0,15.0,-100.00,SSE,165,9.0,13.0,72,0.00,,,-99.99,,2013-01-07 06:42:00,
2013-01-07 00:52:00,22.0,15.0,-100.00,SSE,160,9.0,12.0,73,0.00,,,-99.99,,2013-01-07 06:52:00,
2013-01-07 01:02:00,22.0,15.0,-100.00,SSE,160,9.0,12.0,73,0.00,,,-99.99,,2013-01-07 07:02:00,
2013-01-07 01:12:00,21.0,14.0,-100.00,South,170,9.0,11.0,73,0.00,,,-99.99,,2013-01-07 07:12:00,
2013-01-07 01:22:00,21.0,13.0,-100.00,South,185,8.0,11.0,73,0.00,,,-99.99,,2013-01-07 07:22:00,
2013-01-07 01:33:00,21.0,14.0,-100.00,SSE,165,8.0,11.0,73,0.00,,,-99.99,,2013-01-07 07:33:00,
2013-01-07 01:42:00,21.0,15.0,-100.00,South,170,7.0,12.0,74,0.00,,,-99.99,,2013-01-07 07:42:00,
2013-01-07 01:52:00,22.0,15.0,-100.00,South,170,8.0,11.0,74,0.00,,,-99.99,,2013-01-07 07:52:00,
2013-01-07 02:03:00,22.0,15.0,-100.00,South,170,8.0,11.0,74,0.00,,,-99.99,,2013-01-07 08:03:00,
2013-01-07 02:12:00,22.0,16.0,-100.00,SSE,155,10.0,14.0,74,0.00,,,-99.99,,2013-01-07 08:12:00,
2013-01-07 02:22:00,23.0,16.0,-100.00,SSE,160,11.0,16.0,74,0.00,,,-99.99,,2013-01-07 08:22:00,
2013-01-07 02:32:00,23.0,16.0,-100.00,SSE,160,10.0,16.0,73,0.00,,,-99.99,,2013-01-07 08:32:00,
2013-01-07 02:42:00,23.0,16.0,-100.00,SSE,160,10.0,16.0,73,0.00,,,-99.99,,2013-01-07 08:42:00,
2013-01-07 02:52:00,24.0,16.0,-100.00,SSE,155,12.0,17.0,71,0.00,,,-99.99,,2013-01-07 08:52:00,
2013-01-07 03:02:00,24.0,16.0,-100.00,SSE,155,12.0,17.0,71,0.00,,,-99.99,,2013-01-07 09:02:00,
2013-01-07 03:12:00,24.0,16.0,-100.00,SSE,155,12.0,17.0,71,0.00,,,-99.99,,2013-01-07 09:12:00,
2013-01-07 03:22:00,24.0,15.0,-100.00,South,170,11.0,17.0,70,0.00,,,-99.99,,2013-01-07 09:22:00,
2013-01-07 03:32:00,23.0,15.0,-100.00,SSE,165,9.0,14.0,70,0.00,,,-99.99,,2013-01-07 09:32:00,
2013-01-07 03:42:00,23.0,15.0,-100.00,SSE,165,9.0,14.0,70,0.00,,,-99.99,,2013-01-07 09:42:00,
2013-01-07 03:52:00,22.0,14.0,-100.00,SSE,160,9.0,14.0,70,0.00,,,-99.99,,2013-01-07 09:52:00,
2013-01-07 04:02:00,22.0,14.0,-100.00,SSE,160,9.0,14.0,70,0.00,,,-99.99,,2013-01-07 10:02:00,
2013-01-07 04:12:00,22.0,14.0,-100.00,South,170,9.0,13.0,70,0.00,,,-99.99,,2013-01-07 10:12:00,
2013-01-07 04:22:00,23.0,15.0,-100.00,SSE,165,11.0,15.0,71,0.00,,,-99.99,,2013-01-07 10:22:00,
2013-01-07 04:32:00,22.0,14.0,-100.00,South,170,11.0,15.0,71,0.00,,,-99.99,,2013-01-07 10:32:00,
2013-01-07 04:42:00,22.0,14.0,-100.00,South,170,11.0,15.0,71,0.00,,,-99.99,,2013-01-07 10:42:00,
2013-01-07 04:52:00,22.0,15.0,-100.00,South,175,10.0,14.0,71,0.00,,,-99.99,,2013-01-07 10:52:00,
2013-01-07 05:02:00,22.0,15.0,-100.00,South,175,10.0,14.0,71,0.00,,,-99.99,,2013-01-07 11:02:00,
2013-01-07 05:12:00,23.0,15.0,-100.00,South,175,12.0,16.0,71,0.00,,,-99.99,,2013-01-07 11:12:00,
2013-01-07 05:22:00,24.0,15.0,-100.00,South,180,11.0,16.0,70,0.00,,,-99.99,,2013-01-07 11:22:00,
2013-01-07 05:32:00,24.0,16.0,-100.00,South,185,12.0,16.0,69,0.00,,,-99.99,,2013-01-07 11:32:00,
2013-01-07 05:43:00,24.0,16.0,-100.00,South,185,12.0,16.0,69,0.00,,,-99.99,,2013-01-07 11:43:00,
2013-01-07 05:52:00,25.0,16.0,-100.00,South,180,10.0,15.0,68,0.00,,,-99.99,,2013-01-07 11:52:00,
2013-01-07 06:03:00,25.0,16.0,-100.00,South,180,10.0,15.0,68,0.00,,,-99.99,,2013-01-07 12:03:00,
2013-01-07 06:12:00,25.0,16.0,-100.00,South,180,12.0,16.0,68,0.00,,,-99.99,,2013-01-07 12:12:00,
2013-01-07 06:22:00,25.0,16.0,-100.00,South,190,11.0,16.0,67,0.00,,,-99.99,,2013-01-07 12:22:00,
2013-01-07 06:33:00,25.0,16.0,-100.00,South,180,10.0,14.0,67,0.00,,,-99.99,,2013-01-07 12:33:00,
2013-01-07 06:43:00,25.0,16.0,-100.00,South,180,10.0,14.0,67,0.00,,,-99.99,,2013-01-07 12:43:00,
2013-01-07 06:52:00,27.0,17.0,-100.00,South,180,11.0,14.0,66,0.00,,,-99.99,,2013-01-07 12:52:00,
2013-01-07 07:02:00,27.0,17.0,-100.00,South,180,11.0,14.0,66,0.00,,,-99.99,,2013-01-07 13:02:00,
2013-01-07 07:12:00,28.0,18.0,-100.00,South,175,14.0,18.0,64,0.00,,,-99.99,,2013-01-07 13:12:00,
2013-01-07 07:23:00,28.0,17.0,-100.00,South,175,13.0,17.0,64,0.00,,,-99.99,,2013-01-07 13:23:00,
2013-01-07 07:33:00,29.0,18.0,-100.00,South,180,14.0,20.0,63,0.00,,,-99.99,,2013-01-07 13:33:00,
2013-01-07 07:42:00,29.0,18.0,-100.00,South,180,14.0,20.0,63,0.00,,,-99.99,,2013-01-07 13:42:00,
2013-01-07 07:52:00,29.0,18.0,-100.00,South,185,14.0,20.0,61,0.00,,,-99.99,,2013-01-07 13:52:00,
2013-01-07 08:03:00,29.0,18.0,-100.00,South,185,14.0,20.0,61,0.00,,,-99.99,,2013-01-07 14:03:00,
2013-01-07 08:12:00,29.0,18.0,-100.00,South,185,14.0,20.0,61,0.00,,,-99.99,,2013-01-07 14:12:00,
2013-01-07 08:22:00,30.0,18.0,-100.00,South,185,14.0,18.0,61,0.00,,,-99.99,,2013-01-07 14:22:00,
2013-01-07 08:33:00,31.0,18.0,-100.00,South,175,14.0,19.0,60,0.00,,,-99.99,,2013-01-07 14:33:00,
2013-01-07 08:42:00,31.0,18.0,-100.00,South,175,14.0,19.0,60,0.00,,,-99.99,,2013-01-07 14:42:00,
2013-01-07 08:53:00,31.0,19.0,-100.00,South,175,12.0,17.0,59,0.00,,,-99.99,,2013-01-07 14:53:00,
2013-01-07 09:03:00,31.0,19.0,-100.00,South,175,12.0,17.0,59,0.00,,,-99.99,,2013-01-07 15:03:00,
2013-01-07 09:12:00,31.0,19.0,-100.00,South,185,12.0,18.0,58,0.00,,,-99.99,,2013-01-07 15:12:00,
2013-01-07 09:22:00,33.0,20.0,-100.00,SSW,195,12.0,17.0,57,0.00,,,-99.99,,2013-01-07 15:22:00,
2013-01-07 09:33:00,34.0,20.0,-100.00,SSW,210,11.0,18.0,55,0.00,,,-99.99,,2013-01-07 15:33:00,
2013-01-07 09:42:00,34.0,20.0,-100.00,SSW,210,11.0,18.0,55,0.00,,,-99.99,,2013-01-07 15:42:00,
2013-01-07 09:53:00,35.0,20.0,-100.00,South,190,9.0,15.0,55,0.00,,,-99.99,,2013-01-07 15:53:00,
2013-01-07 10:02:00,35.0,20.0,-100.00,South,190,9.0,15.0,55,0.00,,,-99.99,,2013-01-07 16:02:00,
2013-01-07 10:12:00,36.0,21.0,-100.00,SSW,205,7.0,9.0,54,0.00,,,-99.99,,2013-01-07 16:12:00,
2013-01-07 10:22:00,36.0,21.0,-100.00,SSW,200,11.0,14.0,53,0.00,,,-99.99,,2013-01-07 16:22:00,
2013-01-07 10:33:00,36.0,21.0,-100.00,SSW,205,8.0,12.0,53,0.00,,,-99.99,,2013-01-07 16:33:00,
2013-01-07 10:43:00,37.0,21.0,-100.00,SSW,205,7.0,11.0,53,0.00,,,-99.99,,2013-01-07 16:43:00,
2013-01-07 10:53:00,38.0,22.0,-100.00,SW,220,8.0,13.0,52,0.00,,,-99.99,,2013-01-07 16:53:00,
2013-01-07 11:02:00,38.0,22.0,-100.00,SW,220,8.0,13.0,52,0.00,,,-99.99,,2013-01-07 17:02:00,
2013-01-07 11:12:00,38.0,22.0,-100.00,SW,215,13.0,18.0,51,0.00,,,-99.99,,2013-01-07 17:12:00,
2013-01-07 11:22:00,38.0,22.0,-100.00,SW,215,12.0,17.0,51,0.00,,,-99.99,,2013-01-07 17:22:00,
2013-01-07 11:33:00,38.0,22.0,-100.00,SW,225,11.0,17.0,51,0.00,,,-99.99,,2013-01-07 17:33:00,
2013-01-07 11:42:00,39.0,22.0,-100.00,SSW,205,11.0,17.0,50,0.00,,,-99.99,,2013-01-07 17:42:00,
2013-01-07 11:53:00,39.0,22.0,-100.00,SSW,210,15.0,20.0,51,0.00,,,-99.99,,2013-01-07 17:53:00,
2013-01-07 12:03:00,39.0,22.0,-100.00,SSW,210,15.0,20.0,51,0.00,,,-99.99,,2013-01-07 18:03:00,
2013-01-07 12:12:00,39.0,22.0,-100.00,SW,220,12.0,21.0,50,0.00,,,-99.99,,2013-01-07 18:12:00,
2013-01-07 12:23:00,39.0,22.0,-100.00,SW,215,17.0,23.0,50,0.00,,,-99.99,,2013-01-07 18:23:00,
2013-01-07 12:32:00,40.0,22.0,-100.00,SSW,210,13.0,21.0,49,0.00,,,-99.99,,2013-01-07 18:32:00,
2013-01-07 12:42:00,40.0,22.0,-100.00,SSW,210,13.0,21.0,49,0.00,,,-99.99,,2013-01-07 18:42:00,
2013-01-07 12:52:00,40.0,22.0,-100.00,SSW,210,16.0,22.0,48,0.00,,,-99.99,,2013-01-07 18:52:00,
2013-01-07 13:03:00,40.0,22.0,-100.00,SSW,210,16.0,22.0,48,0.00,,,-99.99,,2013-01-07 19:03:00,
2013-01-07 13:12:00,40.0,22.0,-100.00,SSW,205,17.0,21.0,48,0.00,,,-99.99,,2013-01-07 19:12:00,
2013-01-07 13:22:00,40.0,23.0,-100.00,SW,220,12.0,21.0,49,0.00,,,-99.99,,2013-01-07 19:22:00,
2013-01-07 13:33:00,41.0,23.0,-100.00,SW,215,9.0,15.0,49,0.00,,,-99.99,,2013-01-07 19:33:00,
2013-01-07 13:42:00,41.0,23.0,-100.00,SW,215,9.0,15.0,49,0.00,,,-99.99,,2013-01-07 19:42:00,
2013-01-07 13:52:00,40.0,24.0,-100.00,SW,225,7.0,14.0,50,0.00,,,-99.99,,2013-01-07 19:52:00,
2013-01-07 14:03:00,40.0,24.0,-100.00,SW,225,7.0,14.0,50,0.00,,,-99.99,,2013-01-07 20:03:00,
2013-01-07 14:12:00,40.0,24.0,-100.00,SW,220,9.0,12.0,50,0.00,,,-99.99,,2013-01-07 20:12:00,
2013-01-07 14:23:00,41.0,24.0,-100.00,SW,220,7.0,11.0,50,0.00,,,-99.99,,2013-01-07 20:23:00,
2013-01-07 14:33:00,41.0,24.0,-100.00,SSW,210,6.0,9.0,51,0.00,,,-99.99,,2013-01-07 20:33:00,
2013-01-07 14:42:00,41.0,24.0,-100.00,SW,215,6.0,9.0,51,0.00,,,-99.99,,2013-01-07 20:42:00,
2013-01-07 14:52:00,41.0,24.0,-100.00,SW,220,5.0,9.0,51,0.00,,,-99.99,,2013-01-07 20:52:00,
2013-01-07 15:03:00,41.0,24.0,-100.00,SW,220,5.0,9.0,51,0.00,,,-99.99,,2013-01-07 21:03:00,
2013-01-07 15:12:00,41.0,25.0,-100.00,SW,225,4.0,7.0,51,0.00,,,-99.99,,2013-01-07 21:12:00,
2013-01-07 15:22:00,41.0,25.0,-100.00,SSW,210,4.0,7.0,51,0.00,,,-99.99,,2013-01-07 21:22:00,
2013-01-07 15:33:00,41.0,25.0,-100.00,SW,215,4.0,9.0,51,0.00,,,-99.99,,2013-01-07 21:33:00,
2013-01-07 15:43:00,41.0,25.0,-100.00,SW,215,4.0,9.0,51,0.00,,,-99.99,,2013-01-07 21:43:00,
2013-01-07 15:52:00,41.0,24.0,-100.00,SW,225,6.0,10.0,51,0.00,,,-99.99,,2013-01-07 21:52:00,
2013-01-07 16:02:00,41.0,24.0,-100.00,SW,225,6.0,10.0,51,0.00,,,-99.99,,2013-01-07 22:02:00,
2013-01-07 16:12:00,41.0,24.0,-100.00,SW,225,6.0,10.0,51,0.00,,,-99.99,,2013-01-07 22:12:00,
2013-01-07 16:22:00,40.0,24.0,-100.00,WSW,245,4.0,6.0,51,0.00,,,-99.99,,2013-01-07 22:22:00,
2013-01-07 16:33:00,40.0,24.0,-100.00,WSW,255,4.0,7.0,51,0.00,,,-99.99,,2013-01-07 22:33:00,
2013-01-07 16:42:00,40.0,24.0,-100.00,WSW,255,4.0,7.0,51,0.00,,,-99.99,,2013-01-07 22:42:00,
2013-01-07 16:53:00,39.0,24.0,-100.00,WSW,255,6.0,7.0,52,0.00,,,-99.99,,2013-01-07 22:53:00,
2013-01-07 17:02:00,39.0,24.0,-100.00,WSW,255,6.0,7.0,52,0.00,,,-99.99,,2013-01-07 23:02:00,
2013-01-07 17:12:00,39.0,24.0,-100.00,WSW,255,6.0,7.0,52,0.00,,,-99.99,,2013-01-07 23:12:00,
2013-01-07 17:22:00,39.0,24.0,-100.00,SW,235,4.0,7.0,53,0.00,,,-99.99,,2013-01-07 23:22:00,
2013-01-07 17:33:00,38.0,24.0,-100.00,WSW,250,4.0,6.0,55,0.00,,,-99.99,,2013-01-07 23:33:00,
2013-01-07 17:42:00,38.0,24.0,-100.00,WSW,250,4.0,6.0,55,0.00,,,-99.99,,2013-01-07 23:42:00,
2013-01-07 17:53:00,38.0,24.0,-100.00,WSW,240,2.0,6.0,56,0.00,,,-99.99,,2013-01-07 23:53:00,
2013-01-07 18:02:00,38.0,24.0,-100.00,WSW,240,2.0,6.0,56,0.00,,,-99.99,,2013-01-08 00:02:00,
2013-01-07 18:12:00,37.0,24.0,-100.00,WSW,240,1.0,4.0,57,0.00,,,-99.99,,2013-01-08 00:12:00,
2013-01-07 18:22:00,37.0,24.0,-100.00,West,260,1.0,3.0,57,0.00,,,-99.99,,2013-01-08 00:22:00,
2013-01-07 18:33:00,36.0,24.0,-100.00,West,270,1.0,3.0,59,0.00,,,-99.99,,2013-01-08 00:33:00,
2013-01-07 18:42:00,36.0,24.0,-100.00,West,270,1.0,3.0,59,0.00,,,-99.99,,2013-01-08 00:42:00,
2013-01-07 18:52:00,36.0,24.0,-100.00,WSW,245,2.0,3.0,60,0.00,,,-99.99,,2013-01-08 00:52:00,
2013-01-07 19:02:00,36.0,24.0,-100.00,WSW,245,2.0,3.0,60,0.00,,,-99.99,,2013-01-08 01:02:00,
2013-01-07 19:12:00,36.0,24.0,-100.00,SSW,210,1.0,4.0,60,0.00,,,-99.99,,2013-01-08 01:12:00,
2013-01-07 19:22:00,36.0,24.0,-100.00,South,190,3.0,4.0,61,0.00,,,-99.99,,2013-01-08 01:22:00,
2013-01-07 19:33:00,35.0,24.0,-100.00,SSW,195,1.0,2.0,63,0.00,,,-99.99,,2013-01-08 01:33:00,
2013-01-07 19:42:00,35.0,24.0,-100.00,SSW,195,1.0,2.0,63,0.00,,,-99.99,,2013-01-08 01:42:00,
2013-01-07 19:52:00,34.0,24.0,-100.00,WSW,240,0.0,1.0,65,0.00,,,-99.99,,2013-01-08 01:52:00,
2013-01-07 20:02:00,34.0,24.0,-100.00,WSW,240,0.0,1.0,65,0.00,,,-99.99,,2013-01-08 02:02:00,
2013-01-07 20:12:00,34.0,24.0,-100.00,SSW,210,1.0,2.0,66,0.00,,,-99.99,,2013-01-08 02:12:00,
2013-01-07 20:22:00,34.0,25.0,-100.00,SSW,200,0.0,2.0,67,0.00,,,-99.99,,2013-01-08 02:22:00,
2013-01-07 20:32:00,34.0,25.0,-100.00,South,185,4.0,6.0,69,0.00,,,-99.99,,2013-01-08 02:32:00,
2013-01-07 20:42:00,34.0,25.0,-100.00,South,185,4.0,6.0,69,0.00,,,-99.99,,2013-01-08 02:42:00,
2013-01-07 20:53:00,34.0,25.0,-100.00,SSW,195,3.0,4.0,71,0.00,,,-99.99,,2013-01-08 02:53:00,
2013-01-07 21:03:00,34.0,25.0,-100.00,SSW,195,3.0,4.0,71,0.00,,,-99.99,,2013-01-08 03:03:00,
2013-01-07 21:12:00,34.0,25.0,-100.00,SSW,195,3.0,4.0,71,0.00,,,-99.99,,2013-01-08 03:12:00,
2013-01-07 21:22:00,33.0,25.0,-100.00,South,190,2.0,4.0,72,0.00,,,-99.99,,2013-01-08 03:22:00,
2013-01-07 21:32:00,33.0,25.0,-100.00,SSW,205,1.0,2.0,73,0.00,,,-99.99,,2013-01-08 03:32:00,
2013-01-07 21:42:00,33.0,25.0,-100.00,SSW,205,1.0,2.0,73,0.00,,,-99.99,,2013-01-08 03:42:00,
2013-01-07 21:53:00,33.0,25.0,-100.00,South,185,4.0,4.0,74,0.00,,,-99.99,,2013-01-08 03:53:00,
2013-01-07 22:02:00,33.0,25.0,-100.00,South,185,4.0,4.0,74,0.00,,,-99.99,,2013-01-08 04:02:00,
2013-01-07 22:12:00,33.0,25.0,-100.00,South,185,4.0,4.0,74,0.00,,,-99.99,,2013-01-08 04:12:00,
2013-01-07 22:22:00,31.0,24.0,-100.00,South,180,2.0,3.0,75,0.00,,,-99.99,,2013-01-08 04:22:00,
2013-01-07 22:32:00,31.0,25.0,-100.00,NNW,335,2.0,2.0,76,0.00,,,-99.99,,2013-01-08 04:32:00,
2013-01-07 22:42:00,31.0,25.0,-100.00,NNW,335,2.0,2.0,76,0.00,,,-99.99,,2013-01-08 04:42:00,
2013-01-07 22:52:00,30.0,24.0,-100.00,SE,135,1.0,2.0,77,0.00,,,-99.99,,2013-01-08 04:52:00,
2013-01-07 23:03:00,30.0,24.0,-100.00,SE,135,1.0,2.0,77,0.00,,,-99.99,,2013-01-08 05:03:00,
2013-01-07 23:12:00,29.0,23.0,-100.00,South,185,3.0,4.0,78,0.00,,,-99.99,,2013-01-08 05:12:00,
2013-01-07 23:22:00,29.0,23.0,-100.00,South,185,3.0,4.0,78,0.00,,,-99.99,,2013-01-08 05:22:00,
2013-01-07 23:33:00,27.0,22.0,-100.00,ESE,115,2.0,4.0,80,0.00,,,-99.99,,2013-01-08 05:33:00,
2013-01-07 23:42:00,27.0,22.0,-100.00,ESE,115,2.0,4.0,80,0.00,,,-99.99,,2013-01-08 05:42:00,
2013-01-07 23:53:00,27.0,22.0,-100.00,SE,135,2.0,4.0,81,0.00,,,-99.99,,2013-01-08 05:53:00,